Location: Consuma
(43.7833°N, 11.5833°E)
Time: 14:50:17
(UTC+00:00)

H-2A R/B - Pass Details

Date: 17 February 2020
Orbit: 529 x 653 km, 98.3° (Epoch: 07 April)

Event Time Altitude Azimuth Distance (km) Brightness Sun altitude
Rises 05:16:51 0° 356° (N) 2,896 5.9 -10.3°
Reaches altitude 10° 05:19:45 10° 334° (NNW) 2,008 4.9 -9.8°
Maximum altitude 05:22:21 16° 298° (WNW) 1,671 4.2 -9.3°
Drops below altitude 10° 05:25:00 10° 261° (W) 2,034 4.6 -8.9°
Enters shadow 05:25:01 10° 261° (W) 2,040 4.6 -8.9°
